Juneau, AK

3:52 PM AKST on January 22, 2017 (GMT -0900)
Juneau International

Weather History for PAJN - March, 2013

Change the Weather History Date:

Sunday, March 3, 2013

  Actual Average Record
Temperature  
Mean Temperature 32 °F 32 °F  
Max Temperature 39 °F 37 °F 46 °F (1943)
Min Temperature 25 °F 26 °F -10 °F (1955)
Degree Days  
Heating Degree Days 33 33  
Month to date heating degree days 93 100  
Since 1 July heating degree days 6164 5937  
Cooling Degree Days 0 0  
Month to date cooling degree days 0 0  
Year to date cooling degree days 0 0  
Moisture  
Dew Point 28 °F    
Average Humidity 88    
Maximum Humidity 100    
Minimum Humidity 76    
Precipitation  
Precipitation 0.00 in 0.13 in 0.80 in (1986)
Month to date precipitation 0.24 0.41  
Year to date precipitation 14.55 9.89  
Snow  
Snow 0.00 in 0.50 in 7.00 in (1971)
Month to date snowfall 0.0 1.6  
Since 1 July snowfall 63.4 75.6  
Snow Depth 0.00 in    
Sea Level Pressure  
Sea Level Pressure 30.38 in    
Wind  
Wind Speed 2 mph (SW)    
Max Wind Speed 12 mph    
Max Gust Speed 15 mph    
Visibility 10 miles    
Events      
T = Trace of Precipitation, MM = Missing Value Source: NWS Daily Summary

Daily Weather History Graph

Daily Weather History Graph

Search for Another Location

Airport or City:

Trip Planner

Search our weather history database for the weather conditions in past years. The results will help you decide how hot, cold, wet, or windy it might be!

Date:

Astronomy

Mar. 03, 2013 Rise Set
Actual Time 6:46 AM AKST 5:34 PM AKST
Civil Twilight 6:07 AM AKST 6:14 PM AKST
Nautical Twilight 5:21 AM AKST 7:00 PM AKST
Astronomical Twilight 4:34 AM AKST 7:47 PM AKST
Moon 12:48 AM AKST (3/3) 8:38 AM AKST (3/3)
Length of Visible Light 12h 07m
Length of Day
10h 47m
Waning Gibbous, 62% of the Moon is Illuminated
Mar 3
Waning Gibbous
Mar 4
Last Quarter
Mar 11
New
Mar 19
First Quarter
Mar 27
Full

Hourly Weather History & Observations

Time (AKST) Temp. Windchill Dew Point Humidity Pressure Visibility Wind Dir Wind Speed Gust Speed Precip Events Conditions
12:53 AM 26.1 °F - 25.0 °F 96% 30.22 in 10.0 mi Calm Calm - N/A   Clear
1:07 AM 26.1 °F 21.9 °F 25.0 °F 96% 30.23 in 10.0 mi ESE 3.5 mph - N/A   Scattered Clouds
1:53 AM 27.0 °F - 25.0 °F 92% 30.25 in 10.0 mi Calm Calm - N/A   Partly Cloudy
3:53 AM 27.0 °F - 26.1 °F 96% 30.29 in 10.0 mi Calm Calm - N/A   Overcast
4:53 AM 28.0 °F - 28.0 °F 100% 30.30 in 10.0 mi Calm Calm - N/A   Overcast
5:53 AM 28.0 °F 22.8 °F 27.0 °F 96% 30.32 in 10.0 mi WNW 4.6 mph - N/A   Overcast
6:18 AM 28.0 °F - 27.0 °F 96% 30.31 in 10.0 mi Calm Calm - N/A   Overcast
6:53 AM 28.9 °F 25.2 °F 27.0 °F 92% 30.32 in 10.0 mi ESE 3.5 mph - 0.00 in   Overcast
7:53 AM 30.0 °F - 28.0 °F 92% 30.34 in 10.0 mi Calm Calm - N/A   Overcast
8:53 AM 30.9 °F - 30.0 °F 96% 30.35 in 10.0 mi Calm Calm - N/A   Overcast
9:53 AM 34.0 °F - 30.9 °F 89% 30.37 in 10.0 mi Calm Calm - N/A   Overcast
10:53 AM 36.0 °F 33.3 °F 30.9 °F 82% 30.39 in 10.0 mi West 3.5 mph - N/A   Mostly Cloudy
11:53 AM 37.0 °F 32.4 °F 32.0 °F 82% 30.40 in 10.0 mi WSW 5.8 mph - N/A   Mostly Cloudy
12:53 PM 37.9 °F 32.7 °F 32.0 °F 79% 30.41 in 10.0 mi WSW 6.9 mph - N/A   Mostly Cloudy
1:53 PM 37.9 °F 32.1 °F 30.9 °F 76% 30.42 in 10.0 mi WSW 8.1 mph - N/A   Mostly Cloudy
2:53 PM 39.0 °F 33.4 °F 32.0 °F 76% 30.42 in 10.0 mi WSW 8.1 mph - N/A   Mostly Cloudy
3:53 PM 37.9 °F 32.1 °F 30.9 °F 76% 30.43 in 10.0 mi SW 8.1 mph - N/A   Scattered Clouds
4:53 PM 36.0 °F 33.3 °F 30.9 °F 82% 30.44 in 10.0 mi SW 3.5 mph - N/A   Mostly Cloudy
5:53 PM 34.0 °F - 30.0 °F 85% 30.45 in 10.0 mi Calm Calm - N/A   Mostly Cloudy
6:53 PM 30.9 °F - 28.9 °F 92% 30.46 in 10.0 mi Calm Calm - N/A   Mostly Cloudy
7:53 PM 28.9 °F - 28.0 °F 96% 30.46 in 10.0 mi Calm Calm - N/A   Mostly Cloudy
8:53 PM 28.9 °F - 28.0 °F 96% 30.47 in 10.0 mi Calm Calm - N/A   Scattered Clouds
9:53 PM 27.0 °F - 27.0 °F 100% 30.47 in 10.0 mi Calm Calm - N/A   Scattered Clouds
10:53 PM 27.0 °F - 25.0 °F 92% 30.48 in 10.0 mi Calm Calm - N/A   Scattered Clouds
11:53 PM 27.0 °F - 24.1 °F 89% 30.48 in 10.0 mi Calm Calm - N/A   Partly Cloudy